TimePDT,TemperatureF,Dew PointF,Humidity,Sea Level PressureIn,VisibilityMPH,Wind Direction,Wind SpeedMPH,Gust SpeedMPH,PrecipitationIn,Events,Conditions,WindDirDegrees,DateUTC
12:52 AM,62.1,41.0,46,29.87,10.0,WSW,5.8,-,N/A,,Clear,250,2014-06-19 07:52:00
1:52 AM,59.0,45.0,60,29.87,10.0,WSW,6.9,-,N/A,,Clear,240,2014-06-19 08:52:00
2:52 AM,57.2,42.8,59,29.88,10.0,SSW,3.5,-,N/A,,Clear,200,2014-06-19 09:52:00
3:52 AM,57.9,43.0,58,29.87,10.0,SSW,9.2,-,N/A,,Clear,210,2014-06-19 10:52:00
4:52 AM,54.0,41.0,62,29.88,10.0,South,6.9,-,N/A,,Clear,170,2014-06-19 11:52:00
5:52 AM,53.1,44.1,71,29.90,10.0,SE,5.8,-,N/A,,Clear,130,2014-06-19 12:52:00
6:52 AM,55.0,45.0,69,29.91,10.0,SSE,6.9,-,N/A,,Clear,160,2014-06-19 13:52:00
7:52 AM,63.0,42.1,46,29.92,10.0,South,8.1,-,N/A,,Clear,190,2014-06-19 14:52:00
8:52 AM,66.0,41.0,40,29.93,10.0,South,11.5,-,N/A,,Mostly Cloudy,190,2014-06-19 15:52:00
9:52 AM,66.9,39.9,37,29.93,10.0,South,9.2,-,N/A,,Clear,180,2014-06-19 16:52:00
10:52 AM,71.1,39.0,31,29.92,10.0,Variable,6.9,-,N/A,,Mostly Cloudy,0,2014-06-19 17:52:00
11:52 AM,73.9,37.0,26,29.92,10.0,SSW,8.1,-,N/A,,Clear,200,2014-06-19 18:52:00
12:52 PM,78.1,37.0,23,29.91,10.0,SSW,11.5,-,N/A,,Scattered Clouds,200,2014-06-19 19:52:00
1:52 PM,82.0,35.1,18,29.88,10.0,SSW,16.1,-,N/A,,Clear,200,2014-06-19 20:52:00
2:52 PM,82.9,37.0,19,29.88,10.0,South,16.1,-,N/A,,Clear,170,2014-06-19 21:52:00
3:52 PM,84.0,37.0,19,29.86,10.0,SW,12.7,-,N/A,,Clear,230,2014-06-19 22:52:00
4:52 PM,84.0,36.0,18,29.85,10.0,South,11.5,-,N/A,,Clear,180,2014-06-19 23:52:00
5:52 PM,84.0,35.1,17,29.84,10.0,South,12.7,-,N/A,,Clear,170,2014-06-20 00:52:00
6:52 PM,82.9,42.1,24,29.84,10.0,SSE,11.5,-,N/A,,Clear,160,2014-06-20 01:52:00
7:52 PM,80.1,44.1,28,29.84,10.0,SSE,10.4,-,N/A,,Clear,150,2014-06-20 02:52:00
8:52 PM,75.0,46.9,37,29.84,10.0,SSE,4.6,-,N/A,,Clear,160,2014-06-20 03:52:00
9:52 PM,72.0,43.0,35,29.85,10.0,NNW,11.5,-,N/A,,Clear,340,2014-06-20 04:52:00
10:52 PM,70.0,39.9,33,29.85,10.0,NNW,11.5,-,N/A,,Clear,330,2014-06-20 05:52:00
11:52 PM,64.9,41.0,42,29.86,10.0,NNW,9.2,-,N/A,,Clear,340,2014-06-20 06:52:00